Orbital Elements at Epoch 2459000.5 (2020-May-31.0) TDB
Reference: JPL 22 (heliocentric ecliptic J2000)
Element | Value | Uncertainty (1-sigma) | Units |
e | .1543114824146158 | 3.9712e-08 | |
a | 2.744583769990613 | 1.3744e-08 | au |
q | 2.321062979832266 | 1.0843e-07 | au |
i | 12.87506243490534 | 4.3741e-06 | deg |
node | 189.6305582248012 | 1.8888e-05 | deg |
peri | 290.430854542723 | 2.4179e-05 | deg |
M | 185.1973102856847 | 1.8415e-05 | deg |
tp | 2459806.915326472608 (2022-Aug-15.41532647) | 8.8175e-05 | TDB |
period | 1660.784041736426 4.55 | 1.2475e-05 3.415e-08 | d yr |
n | .2167650886286235 | 1.6282e-09 | deg/d |
Q | 3.168104560148959 | 1.5865e-08 | au |
|
| | Orbit Determination Parameters
Additional Information
|